Waarnemingen

Advertentie
Mijn weer
Zwiesel, Duitsland (10796): temperatuur & dauwpunt: 15.01.2017 01:00:00 - 21.01.2017 01:00:00 (CET)Zwiesel, Duitsland (10796): temperatuur 5cm & temperatuur -5cm: 15.01.2017 01:00:00 - 21.01.2017 01:00:00 (CET)Zwiesel, Duitsland (10796): temperatuur -20cm & temperatuur -100cm: 15.01.2017 01:00:00 - 21.01.2017 01:00:00 (CET)Zwiesel, Duitsland (10796): windsnelheid & windstoten: 15.01.2017 01:00:00 - 21.01.2017 01:00:00 (CET)Zwiesel, Duitsland (10796): windrichting: 15.01.2017 01:00:00 - 21.01.2017 01:00:00 (CET)Zwiesel, Duitsland (10796): luchtdruk: 15.01.2017 01:00:00 - 21.01.2017 01:00:00 (CET)Zwiesel, Duitsland (10796): zicht: 15.01.2017 01:00:00 - 21.01.2017 01:00:00 (CET)Zwiesel, Duitsland (10796): Zonneschijnduur: 15.01.2017 01:00:00 - 21.01.2017 01:00:00 (CET)Zwiesel, Duitsland (10796): neerslag: 15.01.2017 01:00:00 - 21.01.2017 01:00:00 (CET)
Datum & Tijd tt [°C] td [°C] tt 5cm [°C] tt -5cm [°C] tt -20cm [°C] tt -100cm [°C] ff [km/u] ff [kn] fx [km/u] fx [kn] dd ppp [hPa] vv [km] sd [min] rr [mm]
21.01.2017 01:00:00 -9,3 -10,3 -0,8 -0,2 -0,2 2,9 5 3 8 4 ZO 1035,3 25 0 0,0
21.01.2017 00:00:00 -7,9 -8,6 -0,8 -0,2 -0,2 2,9 2 1 6 4 Z 1035,2 34 0 0,0
20.01.2017 23:00:00 -7,6 -8,5 -0,8 -0,2 -0,2 2,9 6 3 9 5 OZO 1035,2 29 0 0,0
20.01.2017 22:00:00 -6,5 -7,6 -0,8 -0,2 -0,2 2,9 4 2 8 5 ZO 1035,0 26 0 0,0
20.01.2017 21:00:00 -5,2 -7,0 -0,8 -0,2 -0,2 2,9 2 1 10 5 ZZW 1034,7 24 0 0,0
20.01.2017 20:00:00 -3,6 -6,9 -0,8 -0,2 -0,2 2,9 5 3 14 8 ZO 1034,0 49 0 0,0
20.01.2017 19:00:00 -0,7 -8,3 -0,8 -0,2 -0,2 2,9 12 6 26 14 NO 1032,9 61 0 0,0
20.01.2017 18:00:00 -0,7 -8,3 -0,8 -0,2 -0,2 2,9 14 7 20 11 NNO 1032,8 61 0 0,0
20.01.2017 17:00:00 0,6 -8,1 -0,8 -0,2 -0,2 2,9 14 8 25 14 NO 1032,6 58 43 0,0
20.01.2017 16:00:00 1,6 -7,5 -0,8 -0,2 -0,2 2,9 15 8 25 14 NNO 1032,3 59 60 0,0
20.01.2017 15:00:00 3,1 -9,4 -0,8 -0,2 -0,2 2,9 9 5 22 12 NNO 1031,9 41 60 0,0
20.01.2017 14:00:00 4,5 -11,1 -0,8 -0,2 -0,2 2,9 6 3 24 13 ONO 1031,5 29 60 0,0
20.01.2017 13:00:00 4,1 -13,3 -0,8 -0,2 -0,2 2,9 7 4 20 11 O 1032,1 70 60 0,0
20.01.2017 12:00:00 2,9 -14,0 -0,7 -0,2 -0,2 2,9 5 3 12 7 ZZW 1032,9 37 60 0,0
20.01.2017 11:00:00 -0,9 -13,2 -0,7 -0,2 -0,2 2,9 8 4 15 8 NW 1034,5 39 60 0,0
20.01.2017 10:00:00 -1,3 -15,2 -0,7 -0,2 -0,2 2,9 11 6 20 11 NNO 1035,1 50 60 0,0
20.01.2017 09:00:00 -8,9 -13,6 -0,7 -0,2 -0,2 2,9 3 2 17 9 N 1037,1 50 25 0,0
20.01.2017 08:00:00 -9,4 -15,2 -0,7 -0,2 -0,2 2,9 9 5 21 11 NNO 1037,2 58 0 0,0
20.01.2017 07:00:00 -5,3 -13,6 -0,7 -0,2 -0,2 2,9 14 8 28 15 NO 1035,6 70 0 0,0
20.01.2017 06:00:00 -5,1 -13,1 -0,7 -0,2 -0,2 2,9 12 7 19 10 NO 1035,9 70 0 0,0
20.01.2017 05:00:00 -8,5 -12,3 -0,7 -0,2 -0,2 2,9 5 3 13 7 NO 1037,1 70 0 0,0
20.01.2017 04:00:00 -9,1 -12,2 -0,7 -0,2 -0,2 2,9 5 3 11 6 ZZW 1037,4 67 0 0,0
20.01.2017 03:00:00 -9,3 -12,4 -0,7 -0,2 -0,2 2,9 5 3 12 6 ZZO 1037,6 61 0 0,0
20.01.2017 02:00:00 -8,6 -11,2 -0,7 -0,2 -0,2 2,9 4 2 11 6 OZO 1037,6 55 0 0,0
20.01.2017 01:00:00 -8,7 -11,0 -0,7 -0,2 -0,2 2,9 5 3 12 7 NNW 1038,0 68 0 0,0
20.01.2017 00:00:00 -8,0 -11,6 -0,7 -0,2 -0,2 2,9 3 2 21 11 ZO 1037,9 42 0 0,0
19.01.2017 23:00:00 -7,6 -10,8 -0,7 -0,2 -0,2 2,9 5 3 16 9 NW 1037,9 56 0 0,0
19.01.2017 22:00:00 -5,5 -11,0 -0,7 -0,2 -0,2 2,9 5 3 17 9 OZO 1037,2 55 0 0,0
19.01.2017 21:00:00 -4,2 -11,6 -0,7 -0,2 -0,2 2,9 11 6 24 13 NO 1037,0 70 0 0,0
19.01.2017 20:00:00 -4,0 -11,1 -0,7 -0,2 -0,2 2,9 10 6 19 11 NO 1036,8 62 0 0,0
19.01.2017 19:00:00 -3,4 -11,3 -0,7 -0,2 -0,2 2,9 7 4 25 14 NO 1036,4 65 0 0,0
19.01.2017 18:00:00 -2,0 -9,6 -0,7 -0,2 -0,2 2,9 17 9 28 15 NNO 1035,8 59 0 0,0
19.01.2017 17:00:00 -1,4 -7,2 -0,6 -0,2 -0,2 2,9 5 3 10 5 NO 1035,4 55 41 0,0
19.01.2017 16:00:00 0,3 -7,1 -0,6 -0,2 -0,2 2,9 5 3 14 8 ONO 1034,6 36 60 0,0
19.01.2017 15:00:00 1,3 -6,9 -0,6 -0,2 -0,2 3,0 8 4 20 11 NO 1034,2 27 60 0,0
19.01.2017 14:00:00 1,2 -6,0 -0,6 -0,2 -0,2 3,0 16 9 26 14 NNO 1034,4 26 60 0,0
19.01.2017 13:00:00 1,5 -7,3 -0,6 -0,2 -0,2 3,0 8 4 20 11 NNO 1034,7 20 60 0,0
19.01.2017 12:00:00 0,2 -7,6 -0,6 -0,2 -0,2 3,0 8 4 12 6 NNO 1035,6 37 60 0,0
19.01.2017 11:00:00 -1,4 -9,0 -0,6 -0,2 -0,2 3,0 5 3 19 10 ONO 1036,4 20 60 0,0
19.01.2017 10:00:00 -4,5 -9,5 -0,6 -0,2 -0,2 3,0 15 8 22 12 NNO 1037,3 18 60 0,0
19.01.2017 09:00:00 -7,9 -11,0 -0,5 -0,2 -0,2 3,0 11 6 21 12 NO 1038,3 16 25 0,0
19.01.2017 08:00:00 -12,9 -14,5 -0,5 -0,2 -0,2 3,0 9 5 18 10 ZO 1039,6 18 0 0,0
19.01.2017 07:00:00 -14,1 -15,5 -0,5 -0,2 -0,2 3,0 3 2 11 6 ONO 1040,0 10 0 0,0
19.01.2017 06:00:00 -12,8 -14,3 -0,5 -0,2 -0,2 3,0 5 3 13 7 Z 1039,3 14 0 0,0
19.01.2017 05:00:00 -7,6 -11,2 -0,5 -0,2 -0,2 3,0 7 4 23 13 ONO 1037,7 20 0 0,0
19.01.2017 04:00:00 -7,4 -11,4 -0,5 -0,2 -0,2 3,0 15 8 22 12 NO 1037,8 18 0 0,0
19.01.2017 03:00:00 -7,7 -11,5 -0,5 -0,2 -0,2 3,0 16 9 27 14 NNO 1037,8 19 0 0,0
19.01.2017 02:00:00 -7,5 -11,3 -0,5 -0,2 -0,2 3,0 12 6 24 13 NO 1038,0 18 0 0,0
19.01.2017 01:00:00 -8,2 -11,5 -0,5 -0,2 -0,2 3,0 5 3 23 12 ONO 1038,0 16 0 0,0
19.01.2017 00:00:00 -8,4 -10,9 -0,5 -0,2 -0,2 3,0 5 3 8 5 N 1039,0 12 0 0,0
18.01.2017 23:00:00 -8,6 -11,0 -0,5 -0,2 -0,2 3,0 4 2 14 8 O 1039,0 10 0 0,0
18.01.2017 22:00:00 -8,5 -10,8 -0,5 -0,2 -0,2 3,0 5 3 22 12 NNO 1039,2 9 0 0,0
18.01.2017 21:00:00 -7,3 -10,0 -0,5 -0,2 -0,2 3,0 8 5 20 11 ONO 1038,9 10 0 0,0
18.01.2017 20:00:00 -6,8 -10,0 -0,5 -0,2 -0,2 3,0 16 8 31 17 NNO 1038,5 11 0 0,0
18.01.2017 19:00:00 -6,2 -9,7 -0,5 -0,2 -0,2 3,0 16 8 24 13 NNO 1038,0 11 0 0,0
18.01.2017 18:00:00 -6,1 -9,9 -0,5 -0,2 -0,2 3,0 9 5 29 15 ONO 1038,1 12 0 0,0
18.01.2017 17:00:00 -6,3 -10,0 -0,5 -0,2 -0,2 3,0 12 7 22 12 NNO 1038,0 12 19 0,0
18.01.2017 16:00:00 -5,3 -9,7 -0,5 -0,2 -0,2 3,0 14 8 27 15 NNO 1037,9 14 59 0,0
18.01.2017 15:00:00 -4,7 -9,5 -0,5 -0,3 -0,2 3,0 12 7 22 12 NNO 1037,6 13 49 0,0
18.01.2017 14:00:00 -4,7 -9,9 -0,5 -0,3 -0,2 3,0 12 7 25 13 NNO 1037,6 12 53 0,0
18.01.2017 13:00:00 -5,0 -9,8 -0,5 -0,3 -0,2 3,0 15 8 34 19 NNO 1038,0 13 3 0,0
18.01.2017 12:00:00 -5,2 -9,7 -0,5 -0,3 -0,2 3,0 14 7 29 16 ONO 1038,5 11 0 0,0
18.01.2017 11:00:00 -5,4 -9,6 -0,5 -0,3 -0,2 3,0 9 5 29 15 NO 1038,8 14 0 0,0
18.01.2017 10:00:00 -5,6 -9,9 -0,5 -0,3 -0,2 3,0 12 7 23 13 NNO 1038,6 14 0 0,0
18.01.2017 09:00:00 -5,7 -9,8 -0,5 -0,3 -0,2 3,0 8 4 21 12 NO 1038,4 16 0 0,0
18.01.2017 08:00:00 -5,8 -10,2 -0,5 -0,3 -0,2 3,0 8 4 22 12 NO 1038,0 20 0 0,0
18.01.2017 07:00:00 -6,3 -10,0 -0,4 -0,3 -0,2 3,0 8 4 27 15 NNO 1038,1 17 0 0,0
18.01.2017 06:00:00 -6,1 -10,1 -0,4 -0,3 -0,2 3,0 9 5 19 10 NO 1037,9 20 0 0,0
18.01.2017 05:00:00 -6,2 -9,8 -0,4 -0,3 -0,2 3,0 10 5 26 14 NO 1038,0 22 0 0,0
18.01.2017 04:00:00 -6,0 -9,6 -0,4 -0,3 -0,2 3,0 12 6 31 17 ONO 1037,6 18 0 0,0
18.01.2017 03:00:00 -6,1 -9,4 -0,4 -0,3 -0,2 3,0 16 9 32 18 NNO 1038,0 15 0 0,0
18.01.2017 02:00:00 -6,1 -9,4 -0,4 -0,3 -0,2 3,0 15 8 36 20 ONO 1038,1 15 0 0,0
18.01.2017 01:00:00 -6,4 -9,5 -0,5 -0,3 -0,2 3,0 8 5 33 18 NO 1038,1 19 0 0,0
18.01.2017 00:00:00 -6,4 -9,6 -0,5 -0,3 -0,2 3,0 11 6 40 22 NO 1037,9 13 0 0,0
17.01.2017 23:00:00 -6,4 -9,7 -0,5 -0,3 -0,2 3,0 17 9 34 18 NO 1037,9 20 0 0,0
17.01.2017 22:00:00 -6,3 -9,5 -0,5 -0,3 -0,2 3,0 11 6 29 15 NO 1037,5 25 0 0,0
17.01.2017 21:00:00 -5,9 -9,4 -0,5 -0,3 -0,2 3,0 9 5 47 25 N 1037,0 28 0 0,0
17.01.2017 20:00:00 -5,6 -9,5 -0,5 -0,3 -0,2 3,0 20 11 42 23 NNO 1036,2 27 0 0,0
17.01.2017 19:00:00 -5,5 -9,5 -0,5 -0,3 -0,2 3,0 20 11 37 20 NNO 1036,0 33 0 0,0
17.01.2017 18:00:00 -5,6 -9,6 -0,5 -0,3 -0,2 3,0 11 6 30 16 NO 1035,5 36 0 0,0
17.01.2017 17:00:00 -5,8 -9,6 -0,5 -0,3 -0,2 3,0 15 8 29 15 NO 1035,2 22 21 0,0
17.01.2017 16:00:00 -5,5 -9,8 -0,5 -0,3 -0,2 3,0 11 6 30 16 NNO 1034,9 31 26 0,0
17.01.2017 15:00:00 -5,5 -9,4 -0,5 -0,3 -0,3 3,0 14 7 29 16 NO 1034,7 18 23 0,0
17.01.2017 14:00:00 -5,4 -10,3 -0,5 -0,3 -0,3 3,0 13 7 31 17 NO 1034,4 22 52 0,0
17.01.2017 13:00:00 -5,3 -10,1 -0,5 -0,3 -0,3 3,0 16 9 32 18 NO 1034,4 10 58 0,0
17.01.2017 12:00:00 -5,9 -11,1 -0,5 -0,3 -0,3 3,0 11 6 23 13 NO 1034,6 15 43 0,0
17.01.2017 11:00:00 -5,4 -10,3 -0,5 -0,3 -0,3 3,0 9 5 21 12 NNW 1034,2 17 27 0,0
17.01.2017 10:00:00 -6,3 -9,5 -0,5 -0,3 -0,3 3,0 7 4 11 6 NNW 1034,1 11 0 0,0
17.01.2017 09:00:00 -6,7 -9,7 -0,4 -0,3 -0,3 3,0 9 5 24 13 NNO 1033,9 12 0 0,0
17.01.2017 08:00:00 -6,9 -9,3 -0,3 -0,3 -0,3 3,0 6 3 26 14 N 1033,4 8 0 0,0
17.01.2017 07:00:00 -6,6 -9,3 -0,3 -0,3 -0,3 3,0 16 9 30 16 N 1032,4 12 0 0,0
17.01.2017 06:00:00 -6,7 -9,2 -0,3 -0,3 -0,3 3,0 16 9 27 14 NNO 1031,7 3,7 0 0,0
17.01.2017 05:00:00 -6,5 -9,0 -0,3 -0,3 -0,3 3,0 14 7 30 16 NNO 1031,1 6 0 0,0
17.01.2017 04:00:00 -6,0 -8,5 -0,3 -0,3 -0,3 3,0 20 11 29 16 NNO 1030,5 15 0 0,0
17.01.2017 03:00:00 -5,7 -8,0 -0,3 -0,3 -0,3 3,0 13 7 31 17 NNO 1030,2 16 0 0,0
17.01.2017 02:00:00 -5,5 -8,0 -0,4 -0,3 -0,3 3,0 12 7 25 13 NNO 1029,5 18 0 0,0
17.01.2017 01:00:00 -5,3 -7,6 -0,3 -0,3 -0,3 3,0 7 4 23 12 NNO 1029,3 18 0 0,0
17.01.2017 00:00:00 -4,9 -7,5 -0,3 -0,3 -0,3 3,0 12 6 23 13 NNO 1028,6 8 0 0,0
16.01.2017 23:00:00 -4,7 -7,2 -0,4 -0,3 -0,3 3,0 18 10 33 18 NNO 1028,2 16 0 0,0
16.01.2017 22:00:00 -4,0 -6,0 -0,4 -0,3 -0,3 3,0 12 6 20 11 NNO 1027,4 4,9 0 0,1
16.01.2017 21:00:00 -4,1 -6,1 -0,3 -0,3 -0,3 3,0 8 4 15 8 NNO 1026,8 9 0 0,0
16.01.2017 20:00:00 -5,6 -6,7 -0,4 -0,3 -0,3 3,0 8 4 17 9 NNO 1026,9 12 0 0,0
16.01.2017 19:00:00 -4,4 -5,9 -0,4 -0,3 -0,3 3,0 10 6 19 10 N 1025,9 5 0 0,1
16.01.2017 18:00:00 -4,6 -6,5 -0,4 -0,3 -0,3 3,0 9 5 18 10 NO 1025,4 22 0 0,1
16.01.2017 17:00:00 -3,9 -5,6 -0,4 -0,3 -0,3 3,0 8 4 20 11 N 1024,7 4,1 0 0,0
16.01.2017 16:00:00 -3,3 -6,3 -0,4 -0,3 -0,3 3,0 13 7 22 12 NNW 1024,0 15 27 0,0
16.01.2017 15:00:00 -3,3 -7,1 -0,4 -0,3 -0,3 3,0 10 6 20 11 N 1023,3 41 16 0,0
16.01.2017 14:00:00 -3,0 -6,6 -0,4 -0,3 -0,3 3,0 9 5 14 8 NNW 1023,0 29 4 0,0
16.01.2017 13:00:00 -3,3 -6,2 -0,4 -0,3 -0,3 3,0 6 4 10 5 NNW 1023,2 9 0 0,0
16.01.2017 12:00:00 -3,1 -5,8 -0,4 -0,3 -0,3 3,0 2 1 3 2 ZW 1023,1 15 0 0,1
16.01.2017 11:00:00 -3,9 -6,1 -0,4 -0,3 -0,3 3,0 0 0 0 0 N 1023,4 7 0 0,0
16.01.2017 10:00:00 -4,6 -5,8 -0,4 -0,3 -0,3 3,0 0 0 4 2 N 1023,4 8 0 0,0
16.01.2017 09:00:00 -5,5 -6,2 -0,4 -0,3 -0,3 3,0 2 1 4 2 OZO 1023,2 7 0 0,1
16.01.2017 08:00:00 -5,9 -6,6 -0,4 -0,3 -0,3 3,0 2 1 3 2 WNW 1022,9 3,9 0 0,1
16.01.2017 07:00:00 -6,2 -7,0 -0,4 -0,3 -0,3 3,0 2 1 3 2 NNO 1022,4 3,0 0 0,1
16.01.2017 06:00:00 -6,2 -6,7 -0,4 -0,3 -0,3 3,0 0 0 3 2 N 1022,1 8 0 0,0
16.01.2017 05:00:00 -6,2 -6,5 -0,3 -0,3 -0,3 3,0 3 2 5 3 ZO 1021,8 11 0 0,0
16.01.2017 04:00:00 -5,5 -6,0 -0,4 -0,3 -0,3 3,0 3 2 5 3 OZO 1021,8 10 0 0,0
16.01.2017 03:00:00 -5,4 -5,8 -0,4 -0,3 -0,3 3,0 3 2 6 4 OZO 1021,9 11 0 0,0
16.01.2017 02:00:00 -4,9 -5,5 -0,4 -0,3 -0,3 3,0 3 1 6 3 O 1021,6 12 0 0,0
16.01.2017 01:00:00 -4,5 -5,0 -0,4 -0,3 -0,3 3,0 3 2 5 3 ZZW 1021,6 15 0 0,3
16.01.2017 00:00:00 -4,4 -4,9 -0,4 -0,3 -0,3 3,0 3 2 6 3 Z 1021,6 1,0 0 0,3
15.01.2017 23:00:00 -4,4 -5,1 -0,4 -0,3 -0,3 3,0 3 2 6 3 OZO 1021,8 2,9 0 0,2
15.01.2017 22:00:00 -4,0 -4,5 -0,4 -0,3 -0,3 3,0 4 2 7 4 Z 1021,8 1,4 0 0,4
15.01.2017 21:00:00 -4,0 -4,9 -0,4 -0,3 -0,3 3,0 5 3 23 12 ZW 1021,7 6 0 0,3
15.01.2017 20:00:00 -3,7 -4,9 -0,4 -0,3 -0,3 3,0 4 2 14 7 ZZW 1021,7 2,5 0 0,1
15.01.2017 19:00:00 -3,7 -6,0 -0,3 -0,3 -0,3 3,0 10 5 19 10 W 1021,5 41 0 0,0
15.01.2017 18:00:00 -3,7 -6,0 -0,4 -0,3 -0,3 3,0 9 5 23 13 W 1021,3 53 0 0,3
15.01.2017 17:00:00 -3,2 -4,5 -0,3 -0,3 -0,3 3,0 7 4 16 9 ZZW 1020,6 3,2 0 0,0
15.01.2017 16:00:00 -2,9 -5,0 -0,4 -0,3 -0,3 3,0 6 4 18 10 ZW 1020,4 31 0 0,0
15.01.2017 15:00:00 -2,8 -5,2 -0,4 -0,3 -0,3 3,0 6 4 21 11 WZW 1020,1 27 0 0,2
15.01.2017 14:00:00 -3,1 -4,3 -0,3 -0,3 -0,3 3,0 15 8 31 17 WZW 1019,8 16 0 0,0
15.01.2017 13:00:00 -2,2 -5,0 -0,3 -0,3 -0,3 3,0 11 6 24 13 ZW 1019,4 30 0 0,0
15.01.2017 12:00:00 -2,6 -5,5 -0,3 -0,3 -0,3 3,0 16 8 24 13 WZW 1019,6 21 1 0,0
15.01.2017 11:00:00 -2,7 -4,4 -0,3 -0,3 -0,3 3,0 14 8 23 12 WZW 1019,7 10 0 0,1
15.01.2017 10:00:00 -3,0 -4,4 -0,3 -0,3 -0,3 3,0 11 6 18 10 ZW 1019,3 15 0 0,1
15.01.2017 09:00:00 -2,9 -4,3 -0,3 -0,3 -0,3 3,0 5 3 11 6 ZZO 1018,7 16 0 0,0
15.01.2017 08:00:00 -2,9 -4,2 -0,3 -0,3 -0,3 3,0 7 4 20 11 ZW 1018,0 16 0 0,0
15.01.2017 07:00:00 -2,9 -4,3 -0,3 -0,3 -0,3 3,0 13 7 25 13 W 1017,2 24 0 0,6
15.01.2017 06:00:00 -3,2 -4,0 -0,3 -0,3 -0,3 3,0 8 4 19 10 WZW 1016,6 9 0 0,4
15.01.2017 05:00:00 -3,4 -4,0 -0,3 -0,3 -0,3 3,0 9 5 16 9 ZW 1016,1 1,9 0 0,7
15.01.2017 04:00:00 -3,2 -4,0 -0,3 -0,3 -0,3 3,0 9 5 24 13 ZW 1016,0 1,4 0 0,1
15.01.2017 03:00:00 -2,9 -4,3 -0,3 -0,3 -0,3 3,0 8 5 21 12 ZW 1015,9 8 0 0,3
15.01.2017 02:00:00 -3,0 -3,9 -0,3 -0,3 -0,3 3,0 6 3 24 13 ZZW 1015,7 1,5 0 0,4
15.01.2017 01:00:00 -2,9 -4,1 -0,3 -0,3 -0,3 3,0 13 7 31 17 WZW 1015,7 1,2 0 0,0

tt = temperatuur
td = dauwpunt
tt 5cm = temperatuur 5cm
tt -5cm = temperatuur -5cm
tt -20cm = temperatuur -20cm
tt -100cm = temperatuur -100cm
ff = windsnelheid
fx = windstoten
dd = windrichting
ppp = luchtdruk
vv = zicht
sd = Zonneschijnduur
rr = neerslag

Weerstations in de omgeving